Simultaneous Nadir Overpasses (SNOs) Predictions

Prediction of SNOs between GOES-16 and LANDSAT-8 Satellite Orbit:

Table of predicted SNOs for the next 14.0 days since TLE Epoch: 8/19/2023
Index Date Time (GOES-16) GOES-16 Lat,Lon LANDSAT-8 Lat,Lon Distance(km) Time Diff (sec)
1 08/20/2023 03:06:10 0.03, -75.21 0.45, -73.21 226.79 80
2 08/20/2023 15:24:46 -0.03, -75.22 0.64, -78.37 358.29 80
3 08/22/2023 15:12:35 -0.03, -75.23 0.04, -75.41 21.07 80
4 08/24/2023 15:03:05 -0.03, -75.24 -0.64, -72.46 316.90 80
5 08/25/2023 03:21:48 0.03, -75.24 -0.48, -77.65 274.06 80
6 08/27/2023 03:09:38 0.03, -75.25 0.15, -74.69 63.73 80
7 08/29/2023 02:57:26 0.01, -75.26 0.74, -71.72 402.28 80
8 08/29/2023 15:21:21 -0.01, -75.28 0.33, -76.88 182.33 80
9 08/31/2023 15:06:29 -0.01, -75.30 -0.28, -73.92 157.14 80
10 09/01/2023 03:30:33 0.01, -75.30 -0.82, -79.11 433.06 80
